{"data":{"norad_id":57077,"intl_designator":"2023-088AF","name":"STARLINK-6194","alt_names":[],"object_type":"PAYLOAD","status":"ACTIVE","operator":null,"country":"US","launch_date":"2023-06-22","launch_site_code":"AFWTR","launch_vehicle":null,"mission":null,"orbit_class":"UNKNOWN","rcs_meters":null,"size_class":null,"mass_kg":null,"dimensions":null,"purposes":["comms"],"wikipedia_slug":null,"has_3d_model":false,"image_url":null,"decayed_at":null,"tle_current":{"epoch":"2026-05-25T01:04:19.182144Z","epoch_age_seconds":64522,"freshness":"FRESH","line1":"1 57077U 23088AF  26145.04466646  .00000087  00000+0  12688-4 0  9994","line2":"2 57077  43.0037  25.2798 0000933 266.5837  93.4908 15.27575243162339","mean_motion":15.27575243,"eccentricity":9.33e-5,"inclination_deg":43.0037,"raan_deg":25.2798,"arg_perigee_deg":266.5837,"mean_anomaly_deg":93.4908,"bstar":1.2688e-5,"rev_number":16233,"period_min":94.267042268372,"perigee_km":482.42319025419,"apogee_km":483.70349023768,"semimajor_km":6861.2003402459,"source":"CELESTRAK","updated_at":"2026-05-25T13:38:18.214939Z"}}}